Location: Wald
(31.7579°N, 86.6655°W)
Time: 21:03:41
(UTC+00:00)

Cosmos 540 Rocket - Pass Details

Date: 14 July 2020
Orbit: 740 x 754 km, 74.1° (Epoch: 13 August)

Event Time Altitude Azimuth Distance (km) Brightness Sun altitude
Rises 09:33:59 0° 346° (NNW) 3,193 7.0 -14.8°
Reaches altitude 10° 09:36:22 10° 349° (NNW) 2,269 6.3 -14.4°
Maximum altitude 09:41:29 71° 73° (ENE) 794 3.8 -13.6°
Drops below altitude 10° 09:46:36 10° 157° (SSE) 2,264 5.8 -12.7°
Sets 09:48:58 0° 160° (SSE) 3,186 6.6 -12.3°
